When you browse on this site, cookies collect data to enhance your experience and personalize the content and advertising you see.
Visit our Privacy Policy to learn more. By continuing to use the site, you agree to this use of cookies and data.
  • In Romania
  • List of Countries
  • For 7 days
  • Water Temperature
  • Satellite Maps
  • Weather Map
  • Weather Widgets
  • user-avatar
    Login

    Hourly Weather Franceville

    Today, 20 January, Sunday

    Time Temperature Precipitation Wind Pressure Humidity
    00:00 +26°C° 0.2 mm 1 mps 732 mmHg 84%
    01:00 +23°C° 0.2 mm 0 mps 733 mmHg 88%
    02:00 +23°C° 0 mm 0 mps 732 mmHg 89%
    03:00 +23°C° 0 mm 0 mps 732 mmHg 90%
    04:00 +23°C° 0 mm 0 mps 732 mmHg 91%
    05:00 +23°C° 0 mm 0 mps 732 mmHg 90%
    06:00 +23°C° 0 mm 0 mps 732 mmHg 90%
    07:00 +23°C° 0 mm 0 mps 732 mmHg 89%
    08:00 +25°C° 0 mm 0 mps 733 mmHg 79%
    09:00 +28°C° 0 mm 0 mps 733 mmHg 68%
    10:00 +32°C° 0 mm 1 mps 733 mmHg 58%
    11:00 +34°C° 0 mm 1 mps 733 mmHg 52%
    12:00 +35°C° 0 mm 1 mps 732 mmHg 47%
    13:00 +36°C° 0 mm 1 mps 731 mmHg 41%
    14:00 +36°C° 0 mm 1 mps 731 mmHg 41%
    15:00 +36°C° 0 mm 1 mps 730 mmHg 40%
    16:00 +36°C° 0 mm 1 mps 730 mmHg 40%
    17:00 +34°C° 0 mm 1 mps 730 mmHg 47%
    18:00 +32°C° 0 mm 1 mps 730 mmHg 55%
    19:00 +30°C° 0 mm 1 mps 731 mmHg 62%
    20:00 +29°C° 0 mm 1 mps 731 mmHg 66%
    21:00 +29°C° 0 mm 1 mps 732 mmHg 69%
    22:00 +28°C° 0 mm 1 mps 732 mmHg 73%
    23:00 +27°C° 0 mm 1 mps 732 mmHg 76%

    Tomorrow, 21 January, Monday

    Time Temperature Precipitation Wind Pressure Humidity
    00:00 +26°C° 0 mm 1 mps 732 mmHg 80%
    01:00 +26°C° 0 mm 1 mps 732 mmHg 84%
    02:00 +25°C° 0 mm 1 mps 732 mmHg 85%
    03:00 +25°C° 0 mm 1 mps 732 mmHg 87%
    04:00 +25°C° 0 mm 1 mps 732 mmHg 88%
    05:00 +25°C° 0 mm 1 mps 732 mmHg 88%
    06:00 +25°C° 0 mm 1 mps 732 mmHg 88%
    07:00 +25°C° 0 mm 1 mps 733 mmHg 87%
    08:00 +27°C° 0 mm 1 mps 733 mmHg 78%
    09:00 +29°C° 0 mm 1 mps 733 mmHg 69%
    10:00 +31°C° 0 mm 1 mps 733 mmHg 59%
    11:00 +33°C° 0 mm 1 mps 733 mmHg 53%
    12:00 +35°C° 0 mm 1 mps 732 mmHg 47%
    13:00 +37°C° 0 mm 1 mps 731 mmHg 42%
    14:00 +37°C° 0 mm 1 mps 731 mmHg 42%
    15:00 +36°C° 0 mm 1 mps 730 mmHg 42%
    16:00 +36°C° 0 mm 1 mps 729 mmHg 42%
    17:00 +34°C° 0 mm 1 mps 730 mmHg 50%
    18:00 +32°C° 0 mm 1 mps 730 mmHg 57%
    19:00 +30°C° 0 mm 1 mps 730 mmHg 65%
    20:00 +29°C° 0.7 mm 1 mps 731 mmHg 72%
    21:00 +28°C° 0.7 mm 1 mps 731 mmHg 78%
    22:00 +27°C° 0.7 mm 1 mps 732 mmHg 84%
    23:00 +26°C° 1 mm 1 mps 732 mmHg 86%

    Day after tomorrow, 22 January, Tuesday

    Time Temperature Precipitation Wind Pressure Humidity
    00:00 +26°C° 1 mm 1 mps 732 mmHg 89%
    01:00 +26°C° 1 mm 1 mps 731 mmHg 91%
    02:00 +25°C° 0 mm 1 mps 731 mmHg 91%
    03:00 +25°C° 0 mm 2 mps 731 mmHg 91%
    04:00 +25°C° 0 mm 2 mps 731 mmHg 91%
    05:00 +25°C° 0 mm 1 mps 731 mmHg 91%
    06:00 +25°C° 0 mm 1 mps 732 mmHg 90%
    07:00 +23°C° 0 mm 0 mps 732 mmHg 90%
    08:00 +27°C° 0 mm 1 mps 732 mmHg 80%
    09:00 +29°C° 0 mm 1 mps 733 mmHg 71%
    10:00 +31°C° 0 mm 1 mps 733 mmHg 61%
    11:00 +33°C° 0 mm 1 mps 733 mmHg 55%
    12:00 +34°C° 0 mm 1 mps 732 mmHg 50%
    13:00 +36°C° 0 mm 1 mps 731 mmHg 45%
    14:00 +35°C° 0.1 mm 1 mps 731 mmHg 45%
    15:00 +35°C° 0.1 mm 1 mps 730 mmHg 45%
    16:00 +35°C° 0.1 mm 1 mps 729 mmHg 45%
    17:00 +33°C° 0 mm 1 mps 730 mmHg 51%
    18:00 +32°C° 0 mm 1 mps 730 mmHg 57%
    19:00 +30°C° 0 mm 1 mps 730 mmHg 64%
    20:00 +29°C° 1.3 mm 1 mps 731 mmHg 72%
    21:00 +27°C° 1.3 mm 1 mps 731 mmHg 80%
    22:00 +26°C° 1.3 mm 1 mps 732 mmHg 88%
    23:00 +26°C° 0.1 mm 1 mps 732 mmHg 89%

    23 January, Wednesday

    Time Temperature Precipitation Wind Pressure Humidity
    00:00 +25°C° 0.1 mm 1 mps 732 mmHg 91%
    01:00 +25°C° 0.1 mm 1 mps 731 mmHg 92%
    02:00 +25°C° 0 mm 1 mps 731 mmHg 93%
    03:00 +24°C° 0 mm 1 mps 731 mmHg 94%
    04:00 +24°C° 0 mm 1 mps 731 mmHg 95%
    05:00 +24°C° 0 mm 1 mps 731 mmHg 95%
    06:00 +25°C° 0 mm 1 mps 731 mmHg 94%
    07:00 +25°C° 0 mm 1 mps 732 mmHg 93%
    08:00 +26°C° 0 mm 1 mps 732 mmHg 86%
    09:00 +28°C° 0 mm 1 mps 733 mmHg 79%
    10:00 +29°C° 0 mm 2 mps 733 mmHg 72%
    11:00 +30°C° 0 mm 2 mps 732 mmHg 68%
    12:00 +31°C° 0 mm 2 mps 732 mmHg 65%
    13:00 +32°C° 0 mm 2 mps 731 mmHg 61%
    14:00 +31°C° 0 mm 1 mps 731 mmHg 63%
    15:00 +31°C° 0 mm 1 mps 730 mmHg 65%
    16:00 +30°C° 0 mm 1 mps 729 mmHg 67%
    17:00 +29°C° 0.1 mm 1 mps 730 mmHg 72%
    18:00 +28°C° 0.1 mm 1 mps 730 mmHg 77%
    19:00 +25°C° 0.1 mm 0 mps 731 mmHg 82%
    20:00 +25°C° 0 mm 0 mps 731 mmHg 83%
    21:00 +24°C° 0 mm 0 mps 732 mmHg 84%
    22:00 +24°C° 0 mm 0 mps 732 mmHg 86%
    23:00 +24°C° 0 mm 0 mps 731 mmHg 86%

    24 January, Thursday

    Time Temperature Precipitation Wind Pressure Humidity
    00:00 +24°C° 0 mm 0 mps 731 mmHg 87%
    01:00 +24°C° 0 mm 0 mps 731 mmHg 88%
    02:00 +24°C° 0 mm 0 mps 731 mmHg 89%
    03:00 +23°C° 0 mm 0 mps 730 mmHg 90%
    04:00 +23°C° 0 mm 0 mps 730 mmHg 92%
    05:00 +25°C° 0 mm 1 mps 730 mmHg 91%
    06:00 +25°C° 0 mm 1 mps 730 mmHg 91%
    07:00 +25°C° 0 mm 1 mps 731 mmHg 90%
    08:00 +28°C° 0 mm 1 mps 731 mmHg 81%
    09:00 +30°C° 0 mm 1 mps 731 mmHg 71%
    10:00 +32°C° 0 mm 1 mps 732 mmHg 62%
    11:00 +34°C° 0 mm 1 mps 731 mmHg 54%
    12:00 +36°C° 0 mm 1 mps 730 mmHg 47%
    13:00 +39°C° 0 mm 1 mps 730 mmHg 40%
    14:00 +37°C° 0 mm 1 mps 729 mmHg 40%
    15:00 +37°C° 0 mm 1 mps 728 mmHg 41%
    16:00 +36°C° 0 mm 1 mps 728 mmHg 41%
    17:00 +34°C° 0.2 mm 1 mps 728 mmHg 51%
    18:00 +32°C° 0.2 mm 1 mps 729 mmHg 61%
    19:00 +30°C° 0.2 mm 1 mps 729 mmHg 70%
    20:00 +29°C° 1.1 mm 1 mps 729 mmHg 76%
    21:00 +28°C° 1.1 mm 1 mps 730 mmHg 82%
    22:00 +27°C° 1.1 mm 1 mps 730 mmHg 88%
    23:00 +27°C° 0.1 mm 1 mps 730 mmHg 88%

    25 January, Friday

    Time Temperature Precipitation Wind Pressure Humidity
    00:00 +26°C° 0.1 mm 1 mps 730 mmHg 88%
    01:00 +26°C° 0.1 mm 1 mps 730 mmHg 88%
    02:00 +26°C° 1.5 mm 1 mps 730 mmHg 89%
    03:00 +24°C° 1.5 mm 0 mps 730 mmHg 90%
    04:00 +24°C° 1.5 mm 0 mps 730 mmHg 92%
    05:00 +24°C° 0.1 mm 0 mps 730 mmHg 92%
    06:00 +24°C° 0.1 mm 0 mps 731 mmHg 93%
    07:00 +24°C° 0.1 mm 0 mps 731 mmHg 93%
    08:00 +25°C° 0 mm 0 mps 731 mmHg 84%
    09:00 +29°C° 0 mm 1 mps 732 mmHg 74%
    10:00 +31°C° 0 mm 1 mps 732 mmHg 65%
    11:00 +33°C° 0.1 mm 1 mps 731 mmHg 58%
    12:00 +34°C° 0.1 mm 0 mps 730 mmHg 50%
    13:00 +36°C° 0.1 mm 0 mps 730 mmHg 43%
    14:00 +36°C° 0 mm 0 mps 729 mmHg 43%
    15:00 +37°C° 0 mm 1 mps 729 mmHg 42%
    16:00 +36°C° 0 mm 1 mps 728 mmHg 42%
    17:00 +33°C° 2 mm 1 mps 729 mmHg 57%
    18:00 +30°C° 2 mm 2 mps 729 mmHg 71%
    19:00 +27°C° 2 mm 2 mps 729 mmHg 85%
    20:00 +27°C° 0.3 mm 1 mps 730 mmHg 87%
    21:00 +27°C° 0.3 mm 1 mps 730 mmHg 89%
    22:00 +26°C° 0.3 mm 1 mps 731 mmHg 90%
    23:00 +26°C° 0.1 mm 1 mps 731 mmHg 91%
    Show more